Location: Carella
(45.8167°N, 9.2667°E)
Time: 23:28:52
(UTC+00:00)

STARLINK-1090 - Pass Details

Date: 30 March 2020
Orbit: 548 x 551 km, 53.0° (Epoch: 03 June)

Event Time Altitude Azimuth Distance (km) Brightness Sun altitude
Rises 18:18:50 0° 296° (WNW) 2,720 9.1 -5.9°
Reaches altitude 10° 18:21:14 10° 286° (WNW) 1,823 8.1 -6.3°
Maximum altitude 18:24:54 31° 224° (SW) 970 5.2 -7.0°
Drops below altitude 10° 18:28:34 10° 161° (SSE) 1,813 5.9 -7.6°
Enters shadow 18:30:53 - 151° (SSE) 2,675 6.7 -8.0°
